Location: Bessat
(45.8735°N, 1.9924°E)
Time: 20:58:09
(UTC+00:00)

Daily predictions for brighter satellites

Satellite Brightness Start Highest point End
(mag) Time Altitude Azimuth Time Altitude Azimuth Time Altitude Azimuth
In-Cosmos 22 4.4 18:27:45 10° N 18:33:18 55° ENE 18:38:56 10° SSE
USA 215 3.7 18:28:05 10° NE 18:34:34 64° NNW 18:40:59 10° WSW
Cosmos 676 Rocket 4.2 18:29:33 10° NNW 18:34:38 51° ENE 18:39:44 10° SE
KORONAS-FOTON 4.2 18:32:18 10° N 18:35:55 40° ENE 18:39:32 10° SSE
Cosmos 2322 Rocket 3.7 18:30:53 10° NW 18:36:11 41° WSW 18:41:28 10° S
Cosmos 2333 4.4 18:31:46 10° NNW 18:37:36 86° WSW 18:43:22 10° SSE
Cosmos 1842 3.2 18:34:39 10° N 18:38:29 90° W 18:42:17 10° S
Cosmos 2237 Rocket 3.6 18:34:15 10° N 18:38:33 22° NE 18:42:49 10° E
Exosat Rocket 3.8 18:35:00 10° S 18:39:58 57° ESE 18:46:11 10° NNE
USA 307 3.6 18:36:27 10° WNW 18:40:08 46° SW 18:43:47 10° SSE
Cosmos 1190 Rocket 4.1 18:37:58 10° NNW 18:43:12 86° WSW 18:48:25 10° SSE
USA 186 3.1 18:41:33 10° ESE 18:43:57 21° ENE 18:46:25 10° NNE
FALCON 9 R/B 4.4 18:42:13 10° SSW 18:45:42 16° SSE 18:52:25 10° SE
Meteor 1-21 4.4 18:43:31 10° N 18:49:02 55° ENE 18:54:34 10° SSE
Okean 3 3.4 18:44:54 10° N 18:49:06 64° E 18:53:17 10° SSE
COSMO-SKYMED 1 4.5 18:46:46 10° N 18:50:44 35° WNW 18:54:41 10° SW
CZ-4B R/B 3.3 18:47:34 10° SSE 18:53:14 86° ENE 18:58:54 10° NNW
Cosmos 1707 2.6 18:50:24 10° N 18:54:13 80° E 18:57:59 10° SSE
Cosmos 1727 Rocket 4.1 18:48:19 10° S 18:54:39 85° W 19:00:58 10° N
Cosmos 2322 3.7 18:49:23 10° NNW 18:55:05 76° ENE 19:00:43 10° SSE
Okean 1-7 3.0 18:51:19 10° N 18:55:42 74° E 19:00:01 10° SSE
Cosmos 1954 Rocket 4.0 18:51:02 10° NNW 18:56:18 86° ENE 19:01:34 10° SSE
Lacrosse 5 rocket 2.9 18:54:09 10° SSE 18:57:02 18° SE 18:59:08 13° E
Cosmos 1805 4.3 18:54:33 10° SE 18:57:37 24° E 19:00:44 10° NE
Cosmos 1674 2.5 18:54:53 10° N 18:58:36 72° E 19:02:18 10° SSE
Cosmos 2219 Rocket 2.4 18:56:00 10° NNW 19:01:43 78° WSW 19:07:23 10° SSE
Cosmos 1933 Rocket 3.4 18:57:32 10° S 19:01:51 73° E 19:06:11 10° NNE
Cosmos 1975 2.8 18:58:05 10° S 19:01:56 56° E 19:05:51 10° NNE
SJ-6B 3.0 18:58:55 10° SSE 19:02:43 50° ENE 19:06:28 10° N
Cosmos 2333 Rocket 3.2 18:58:04 10° NW 19:03:39 51° WSW 19:09:11 10° S
Meteor 2-9 Rocket 4.4 19:00:27 10° SSW 19:05:57 73° WNW 19:11:22 10° N
USA 308 4.4 19:03:22 10° WNW 19:06:35 28° SW 19:09:48 10° SSE
SL-8 R/B 4.4 19:02:04 10° WNW 19:06:40 48° SSW 19:11:06 11° SE
Cosmos 1726 2.9 19:04:03 10° SSE 19:07:03 27° E 19:10:04 10° NNE
CSL-04 Debris 4.3 19:03:00 10° SE 19:08:15 54° ENE 19:13:33 10° N
USA 267 3.9 19:03:50 10° SSE 19:10:14 54° SW 19:16:40 10° WNW
Cosmos 1869 Rocket 3.7 19:07:22 10° SSE 19:11:29 46° E 19:15:39 10° NNE
BREEZE-M DEB (TANK) 3.2 19:07:52 10° WNW 19:11:57 35° SW 19:13:56 12° SSE
Cosmos 1900 4.3 19:07:14 10° SSW 19:12:12 82° ESE 19:17:09 10° NE
Cosmos 2061 Rocket 4.3 19:06:31 10° N 19:12:48 51° ENE 19:18:59 10° SSE
COSMOS 2428 2.7 19:09:04 10° NNW 19:14:50 82° ENE 19:20:35 10° SSE
Landsat 5 4.5 19:13:11 10° NE 19:16:13 22° E 19:17:14 19° ESE
SL-14 R/B 3.8 19:13:34 10° N 19:17:09 35° ENE 19:19:23 19° SE
Cosmos 2297 Rocket 2.9 19:14:53 10° SSE 19:19:42 30° ESE 19:24:32 10° NE
Cosmos 1459 Rocket 4.0 19:13:57 10° N 19:20:01 82° W 19:26:06 10° S
USA 281 4.0 19:15:22 10° NNE 19:21:47 57° WNW 19:28:10 10° SW
NOSS 3-2 (A) 4.1 19:14:51 10° NW 19:22:22 83° NE 19:30:28 12° SE
Cosmos 1867 3.8 19:18:02 10° S 19:23:11 45° ESE 19:28:21 10° NE
IGS 5A 3.9 19:21:43 10° S 19:25:47 63° W 19:29:54 10° NNW
Resurs 01 Rocket 2.4 19:25:55 23° ESE 19:27:52 33° ENE 19:31:50 10° N
Cosmos 1725 Rocket 3.9 19:23:42 10° N 19:29:55 76° E 19:36:06 10° SSE
Cosmos 1733 3.0 19:27:52 10° S 19:31:37 77° E 19:35:24 10° NNE
CZ-4C R/B 4.2 19:26:27 10° NNW 19:31:47 24° NNE 19:36:50 13° ENE
Landsat 7 3.7 19:27:56 10° SSE 19:32:38 87° ENE 19:37:23 10° NNW
NOSS 3-2 (C) 4.2 19:25:32 10° NW 19:32:51 62° NE 19:38:47 21° ESE
CENTAUR R/B 3.3 19:24:37 10° NW 19:32:54 85° SW 19:41:25 12° SSE
Cosmos 1626 4.0 19:30:15 10° NNW 19:33:26 31° W 19:36:36 10° SSW
Cosmos 2227 Rocket 3.1 19:31:06 10° SSE 19:35:35 25° ESE 19:40:03 10° NE
Cosmos 1818 4.3 19:30:50 10° NW 19:36:06 51° WSW 19:41:20 10° SSE
CZ-4 R/B 2.9 19:33:18 10° SSW 19:36:48 35° W 19:40:23 10° NNW
Cosmos 192 4.3 19:36:38 10° SSW 19:41:35 88° ESE 19:46:34 10° NNE
Cosmos 2098 Rocket 3.9 19:36:27 10° S 19:41:43 81° W 19:48:11 10° N
Terra 4.0 19:42:45 11° NE 19:42:45 11° NE 19:43:41 10° NE
Geosat 4.1 19:40:50 26° SE 19:43:31 59° ENE 19:48:28 10° NNW
Iridium 4 Rocket 2.9 19:39:23 10° N 19:43:35 89° W 19:47:45 10° S
Resurs 1-3 3.7 19:40:46 10° S 19:45:08 77° WSW 19:49:32 10° NNW
Cosmos 1802 Rocket 4.4 19:40:10 10° NNW 19:46:22 67° W 19:52:37 10° S
USA 238 DEB 4.1 19:39:17 10° NW 19:46:29 60° NE 19:50:50 27° ESE
USA 238 4.1 19:39:23 10° NW 19:46:35 59° NE 19:50:55 27° ESE
SL-16 R/B 3.5 19:43:30 10° N 19:48:07 24° NE 19:49:39 22° ENE
Meteor 2-10 4.0 19:47:55 10° SSW 19:52:56 81° W 19:58:03 10° N
Cosmos 1674 Rocket 4.5 19:49:09 10° N 19:52:42 30° ENE 19:52:42 30° ENE
Cosmos 1733 Rocket 3.2 19:53:01 42° ESE 19:53:41 46° E 19:57:50 10° NNE
Cosmos 1850 Rocket 4.0 19:48:31 10° NNW 19:53:53 88° WSW 19:57:17 23° SSE
Okean-O 2.6 19:52:20 20° SSE 19:55:22 85° WSW 19:59:50 10° NNW
CARTOSAT-1 3.9 19:58:45 41° E 19:58:59 42° ENE 20:03:02 10° N
SPOT 1/Viking Rocket 3.4 19:55:57 25° SSE 19:59:05 79° ENE 20:04:19 10° NNW
Okean 2 3.7 19:55:16 10° NNW 19:59:17 63° W 20:02:15 17° S
Cosmos 2016 Rocket 4.4 19:53:38 10° NNW 19:59:39 62° W 20:05:40 10° S
Cosmos 1110 Rocket 3.8 19:55:16 10° SSW 20:00:28 78° ESE 20:05:40 10° NNE
NOSS 0 Rocket 4.1 19:54:39 10° NNW 20:00:49 73° WSW 20:05:06 21° SSE
SPOT 5 4.2 20:02:23 23° NE 20:02:23 23° NE 20:05:44 10° N
Okean O Rocket 3.7 20:00:09 10° SSW 20:03:51 26° W 20:07:33 10° NW
Cosmos 1378 Rocket 4.1 20:00:06 10° N 20:04:03 40° ENE 20:04:03 40° ENE
SL-4 R/B 4.2 20:01:17 10° SSW 20:02:29 16° S 20:02:29 16° S
Cosmos 2221 Rocket 3.8 20:01:05 10° N 20:05:23 48° ENE 20:05:26 48° E
BREEZE-M DEB (TANK) 2.9 20:02:51 10° WNW 20:08:06 54° N 20:08:22 52° NNE
ISS -2.3 20:05:22 10° WNW 20:08:22 29° N 20:08:42 28° NNE
CSL-04 Rocket 4.4 20:06:42 10° S 20:12:07 52° W 20:17:32 10° NNW
Cosmos 1447 Rocket 4.3 20:09:01 10° S 20:15:14 76° E 20:21:26 10° NNE
Cosmos 1452 Rocket 4.0 20:10:22 10° SW 20:15:34 60° WNW 20:20:49 10° NNE
USA 186 4.4 20:13:42 10° SW 20:16:00 19° W 20:18:20 10° NW
ADEOS Rocket 4.0 20:15:26 30° ENE 20:16:23 31° ENE 20:22:17 10° N
USA 215 4.5 20:11:05 10° NE 20:16:56 36° N 20:22:46 10° WNW
Cosmos 1766 3.3 20:17:38 65° NNE 20:17:38 65° NNE 20:20:56 10° N
Cosmos 1331 Rocket 3.9 20:12:18 10° SSW 20:17:27 83° WNW 20:22:38 10° NNE
H-2A R/B 3.4 20:23:55 38° NE 20:23:55 38° NE 20:27:16 10° N
Cosmos 2237 Rocket 2.2 20:17:36 10° NNW 20:23:15 76° WSW 20:25:11 42° S
Meteor 1-15 Rocket 4.3 20:24:43 54° ESE 20:25:07 55° E 20:30:50 10° NNE
MetOp-B 4.0 20:29:53 64° ESE 20:30:23 68° ENE 20:35:43 10° N
ATLAS CENTAUR R/B 4.4 20:15:27 10° SW 20:32:00 77° NW 20:39:33 10° NE
Cosmos 2346 Rocket 4.4 20:31:21 56° SE 20:32:09 61° E 20:38:14 10° NNE
Lacrosse 5 rocket 1.9 20:31:12 10° SW 20:34:34 53° WSW 20:34:34 53° WSW
Cosmos 968 Rocket 3.3 20:31:54 10° NNW 20:37:06 89° WSW 20:37:26 79° SSE
SJ 16-02 3.3 20:34:19 10° N 20:36:14 19° NNE 20:36:14 19° NNE
Meteor 1-12 Rocket 4.1 20:38:17 66° SSE 20:38:58 74° E 20:44:42 10° NNE
FALCON 9 R/B 3.7 20:24:36 10° WSW 20:43:25 43° SSW 20:45:16 38° SSE
ERS-1 Rocket 3.8 20:44:49 38° NNE 20:44:49 38° NNE 20:48:26 10° N
Cosmos 1980 4.4 20:39:01 10° NW 20:44:28 49° WSW 20:46:15 36° SSW
Cosmos 1513 Rocket 4.3 20:41:02 10° N 20:47:09 80° E 20:47:45 72° SE
Meteor 1-24 Rocket 3.8 20:41:24 10° N 20:47:15 66° ENE 20:47:15 66° ENE
Ariane Rocket 3.0 20:49:52 72° NNE 20:49:52 72° NNE 20:54:30 10° NNW
BREEZE-M DEB (TANK) 3.1 20:44:39 10° WNW 20:50:39 69° NNE 20:50:43 69° NNE
Meteor 2-15 4.2 20:45:19 10° N 20:51:30 79° E 20:51:48 76° ESE
Meteor 2-8 Rocket 4.3 20:47:08 10° N 20:53:17 74° E 20:53:21 74° E
Meteor 2-15 Rocket 4.4 20:51:17 10° N 20:57:03 66° NE 20:57:03 66° NE
Spot 2 Rocket 4.2 21:01:35 45° NNE 21:01:35 45° NNE 21:05:18 10° N
Cosmos 1302 Rocket 4.2 21:02:14 69° NNW 21:02:14 69° NNW 21:07:10 10° NNE
Cosmos 2297 Rocket 3.1 20:58:06 10° SW 21:03:31 46° WNW 21:08:58 10° NNE
Resurs 01 Rocket 3.4 21:03:26 25° WSW 21:04:22 27° W 21:08:08 10° NW
Cosmos 2034 Rocket 4.1 21:02:31 10° N 21:07:51 60° NE 21:07:51 60° NE
SPOT 3 Rocket 4.0 21:12:40 57° NNW 21:12:40 57° NNW 21:16:50 10° NNW
Cosmos 2219 4.1 21:13:55 38° NNE 21:13:55 38° NNE 21:17:20 10° NNE
Meteor 2-5 Rocket 3.9 21:08:54 10° NNW 21:14:30 71° W 21:14:30 71° W
ATLAS 3B R/B 4.4 21:09:08 10° NNW 21:15:13 26° NNE 21:17:41 22° NE
Cosmos 2227 Rocket 2.7 21:13:40 10° SW 21:19:14 55° WNW 21:24:49 10° NNE
Terra 3.3 21:21:29 32° N 21:21:29 32° N 21:24:03 10° N
CZ-4C R/B 3.0 21:14:34 10° NW 21:21:38 63° NE 21:21:59 63° ENE
SL-16 R/B 2.9 21:27:05 10° NNW 21:31:32 52° WNW 21:31:32 52° WNW
USA 215 4.3 21:57:51 34° NNE 21:58:58 36° N 22:04:49 10° NW
ADEOS Rocket 3.8 22:02:22 51° WNW 22:02:22 51° WNW 22:08:13 10° NNW
SJ 16-02 4.3 22:12:24 10° NW 22:13:07 14° NW 22:13:07 14° NW
ATLAS 3B R/B 3.8 22:59:51 10° NW 23:04:56 44° NNW 23:04:56 44° NNW
CZ-4C R/B 4.3 23:03:18 10° NW 23:07:09 29° WNW 23:07:09 29° WNW
Cosmos 2344 4.2 23:11:36 10° NW 23:18:50 69° NNW 23:18:50 69° NNW
